Location: Kott?ru
(16.6209°N, 80.6208°E)
Time: 13:22:43
(UTC+00:00)

SJ-12 - Pass Details

Date: 18 September 2020
Orbit: 569 x 584 km, 97.7° (Epoch: 29 October)

Event Time Altitude Azimuth Distance (km) Brightness Sun altitude
Rises 23:43:03 0° 3° (N) 2,795 7.5 -11.1°
Reaches altitude 10° 23:45:14 10° 359° (N) 1,896 6.6 -10.6°
Maximum altitude 23:49:14 51° 283° (WNW) 730 4.1 -9.7°
Drops below altitude 10° 23:53:14 10° 207° (SSW) 1,896 6.3 -8.7°
Sets 23:55:25 0° 202° (SSW) 2,794 7.2 -8.2°
